When you browse on this site, cookies collect data to enhance your experience and personalize the content and advertising you see.
Visit our Privacy Policy to learn more. By continuing to use the site, you agree to this use of cookies and data.
  • In United Kingdom
  • List of Countries
  • For 7 days
  • Water Temperature
  • Satellite Maps
  • Weather Map
  • Weather Widgets
  • user-avatar
    Login

    Hourly Weather Tunja

    Today, 16 June, Sunday

    Time Temperature Precipitation Wind Pressure Humidity
    00:00 +11°C° 0 mm 1 mps 548 mmHg 97%
    01:00 +11°C° 0 mm 1 mps 548 mmHg 97%
    02:00 +10°C° 0 mm 1 mps 548 mmHg 97%
    03:00 +10°C° 0 mm 1 mps 548 mmHg 97%
    04:00 +10°C° 0 mm 1 mps 548 mmHg 97%
    05:00 +10°C° 0 mm 1 mps 548 mmHg 96%
    06:00 +11°C° 0 mm 1 mps 549 mmHg 95%
    07:00 +11°C° 0 mm 1 mps 549 mmHg 93%
    08:00 +13°C° 0 mm 1 mps 550 mmHg 87%
    09:00 +15°C° 0 mm 2 mps 552 mmHg 80%
    10:00 +16°C° 0 mm 2 mps 553 mmHg 73%
    11:00 +16°C° 0.4 mm 2 mps 552 mmHg 76%
    12:00 +16°C° 0.4 mm 2 mps 551 mmHg 79%
    13:00 +16°C° 0.4 mm 2 mps 551 mmHg 82%
    14:00 +15°C° 0.5 mm 2 mps 550 mmHg 85%
    15:00 +14°C° 0.5 mm 2 mps 549 mmHg 88%
    16:00 +14°C° 0.5 mm 2 mps 549 mmHg 91%
    17:00 +13°C° 0 mm 1 mps 548 mmHg 93%
    18:00 +12°C° 0 mm 1 mps 548 mmHg 94%
    19:00 +11°C° 0 mm 1 mps 548 mmHg 96%
    20:00 +11°C° 0 mm 1 mps 548 mmHg 96%
    21:00 +10°C° 0 mm 1 mps 549 mmHg 96%
    22:00 +10°C° 0 mm 1 mps 549 mmHg 96%
    23:00 +10°C° 0 mm 1 mps 549 mmHg 96%

    Tomorrow, 17 June, Monday

    Time Temperature Precipitation Wind Pressure Humidity
    00:00 +10°C° 0 mm 1 mps 548 mmHg 96%
    01:00 +9°C° 0 mm 2 mps 548 mmHg 96%
    02:00 +9°C° 0 mm 2 mps 548 mmHg 96%
    03:00 +9°C° 0 mm 2 mps 548 mmHg 96%
    04:00 +9°C° 0 mm 2 mps 548 mmHg 96%
    05:00 +10°C° 0 mm 2 mps 548 mmHg 95%
    06:00 +10°C° 0 mm 2 mps 549 mmHg 94%
    07:00 +10°C° 0 mm 2 mps 549 mmHg 94%
    08:00 +13°C° 0.1 mm 2 mps 550 mmHg 89%
    09:00 +14°C° 0.1 mm 2 mps 551 mmHg 85%
    10:00 +15°C° 0.1 mm 2 mps 552 mmHg 81%
    11:00 +16°C° 0.2 mm 2 mps 552 mmHg 78%
    12:00 +17°C° 0.2 mm 2 mps 551 mmHg 76%
    13:00 +17°C° 0.2 mm 3 mps 551 mmHg 73%
    14:00 +17°C° 0.3 mm 2 mps 551 mmHg 76%
    15:00 +16°C° 0.3 mm 2 mps 550 mmHg 79%
    16:00 +16°C° 0.3 mm 2 mps 549 mmHg 82%
    17:00 +14°C° 0.2 mm 2 mps 549 mmHg 86%
    18:00 +13°C° 0.2 mm 2 mps 549 mmHg 91%
    19:00 +12°C° 0.2 mm 2 mps 549 mmHg 96%
    20:00 +12°C° 0.1 mm 1 mps 549 mmHg 96%
    21:00 +12°C° 0.1 mm 1 mps 550 mmHg 96%
    22:00 +12°C° 0.1 mm 1 mps 550 mmHg 96%
    23:00 +12°C° 0.5 mm 1 mps 550 mmHg 96%

    Day after tomorrow, 18 June, Tuesday

    Time Temperature Precipitation Wind Pressure Humidity
    00:00 +12°C° 0.5 mm 1 mps 550 mmHg 96%
    01:00 +12°C° 0.5 mm 2 mps 549 mmHg 96%
    02:00 +12°C° 0.4 mm 1 mps 549 mmHg 96%
    03:00 +12°C° 0.4 mm 1 mps 549 mmHg 96%
    04:00 +11°C° 0.4 mm 1 mps 549 mmHg 96%
    05:00 +12°C° 0.3 mm 1 mps 549 mmHg 96%
    06:00 +12°C° 0.3 mm 1 mps 549 mmHg 95%
    07:00 +12°C° 0.3 mm 2 mps 549 mmHg 95%
    08:00 +12°C° 0.1 mm 2 mps 550 mmHg 93%
    09:00 +13°C° 0.1 mm 2 mps 550 mmHg 90%
    10:00 +14°C° 0.1 mm 2 mps 551 mmHg 88%
    11:00 +15°C° 0.1 mm 2 mps 551 mmHg 83%
    12:00 +16°C° 0.1 mm 2 mps 551 mmHg 79%
    13:00 +17°C° 0.1 mm 2 mps 550 mmHg 74%
    14:00 +17°C° 0.2 mm 2 mps 550 mmHg 75%
    15:00 +17°C° 0.2 mm 2 mps 550 mmHg 76%
    16:00 +16°C° 0.2 mm 2 mps 549 mmHg 77%
    17:00 +15°C° 0.1 mm 2 mps 549 mmHg 83%
    18:00 +13°C° 0.1 mm 2 mps 548 mmHg 89%
    19:00 +11°C° 0.1 mm 1 mps 548 mmHg 96%
    20:00 +11°C° 0 mm 1 mps 548 mmHg 96%
    21:00 +11°C° 0 mm 1 mps 548 mmHg 96%
    22:00 +11°C° 0 mm 1 mps 549 mmHg 96%
    23:00 +11°C° 0 mm 1 mps 549 mmHg 96%

    19 June, Wednesday

    Time Temperature Precipitation Wind Pressure Humidity
    00:00 +11°C° 0 mm 1 mps 549 mmHg 96%
    01:00 +11°C° 0 mm 1 mps 548 mmHg 96%
    02:00 +11°C° 0 mm 1 mps 548 mmHg 96%
    03:00 +11°C° 0 mm 1 mps 548 mmHg 96%
    04:00 +11°C° 0 mm 1 mps 548 mmHg 96%
    05:00 +11°C° 0 mm 1 mps 548 mmHg 95%
    06:00 +11°C° 0 mm 1 mps 549 mmHg 94%
    07:00 +12°C° 0 mm 1 mps 549 mmHg 93%
    08:00 +13°C° 0.1 mm 2 mps 550 mmHg 89%
    09:00 +14°C° 0.1 mm 2 mps 550 mmHg 86%
    10:00 +15°C° 0.1 mm 2 mps 551 mmHg 83%
    11:00 +15°C° 0.2 mm 2 mps 551 mmHg 80%
    12:00 +16°C° 0.2 mm 2 mps 551 mmHg 78%
    13:00 +17°C° 0.2 mm 2 mps 551 mmHg 76%
    14:00 +17°C° 0.4 mm 2 mps 550 mmHg 77%
    15:00 +16°C° 0.4 mm 2 mps 550 mmHg 79%
    16:00 +16°C° 0.4 mm 2 mps 549 mmHg 81%
    17:00 +15°C° 0.3 mm 2 mps 549 mmHg 86%
    18:00 +13°C° 0.3 mm 2 mps 548 mmHg 91%
    19:00 +12°C° 0.3 mm 1 mps 548 mmHg 97%
    20:00 +12°C° 0.1 mm 1 mps 548 mmHg 97%
    21:00 +12°C° 0.1 mm 1 mps 549 mmHg 97%
    22:00 +12°C° 0.1 mm 1 mps 549 mmHg 97%
    23:00 +12°C° 0.2 mm 1 mps 549 mmHg 97%

    20 June, Thursday

    Time Temperature Precipitation Wind Pressure Humidity
    00:00 +12°C° 0.2 mm 1 mps 549 mmHg 97%
    01:00 +12°C° 0.2 mm 1 mps 549 mmHg 97%
    02:00 +12°C° 0.4 mm 1 mps 549 mmHg 97%
    03:00 +12°C° 0.4 mm 1 mps 549 mmHg 97%
    04:00 +12°C° 0.4 mm 1 mps 549 mmHg 98%
    05:00 +12°C° 0.6 mm 1 mps 549 mmHg 97%
    06:00 +12°C° 0.6 mm 1 mps 549 mmHg 97%
    07:00 +12°C° 0.6 mm 1 mps 549 mmHg 97%
    08:00 +12°C° 0.7 mm 1 mps 550 mmHg 94%
    09:00 +13°C° 0.7 mm 1 mps 550 mmHg 91%
    10:00 +14°C° 0.7 mm 2 mps 551 mmHg 89%
    11:00 +14°C° 0.6 mm 2 mps 551 mmHg 87%
    12:00 +14°C° 0.6 mm 2 mps 550 mmHg 86%
    13:00 +15°C° 0.6 mm 2 mps 550 mmHg 85%
    14:00 +14°C° 0.4 mm 2 mps 549 mmHg 87%
    15:00 +14°C° 0.4 mm 2 mps 549 mmHg 89%
    16:00 +13°C° 0.4 mm 1 mps 548 mmHg 92%
    17:00 +13°C° 0.4 mm 1 mps 549 mmHg 93%
    18:00 +12°C° 0.4 mm 1 mps 549 mmHg 94%
    19:00 +12°C° 0.4 mm 1 mps 549 mmHg 96%
    20:00 +12°C° 0.1 mm 1 mps 549 mmHg 96%
    21:00 +12°C° 0.1 mm 1 mps 550 mmHg 96%
    22:00 +12°C° 0.1 mm 2 mps 550 mmHg 96%
    23:00 +12°C° 0.5 mm 2 mps 550 mmHg 97%

    21 June, Friday

    Time Temperature Precipitation Wind Pressure Humidity
    00:00 +12°C° 0.5 mm 2 mps 549 mmHg 97%
    01:00 +12°C° 0.5 mm 2 mps 549 mmHg 97%
    02:00 +10°C° 0.1 mm 2 mps 549 mmHg 96%
    03:00 +10°C° 0.1 mm 2 mps 549 mmHg 96%
    04:00 +9°C° 0.1 mm 2 mps 548 mmHg 96%
    05:00 +9°C° 0 mm 2 mps 549 mmHg 95%
    06:00 +9°C° 0 mm 2 mps 549 mmHg 94%
    07:00 +10°C° 0 mm 2 mps 549 mmHg 93%
    08:00 +11°C° 0.1 mm 3 mps 550 mmHg 85%
    09:00 +13°C° 0.1 mm 3 mps 551 mmHg 76%
    10:00 +14°C° 0.1 mm 3 mps 552 mmHg 68%
    11:00 +16°C° 0.1 mm 3 mps 552 mmHg 66%
    12:00 +17°C° 0.1 mm 4 mps 552 mmHg 64%
    13:00 +17°C° 0.1 mm 4 mps 552 mmHg 63%
    14:00 +17°C° 0.1 mm 3 mps 551 mmHg 66%
    15:00 +16°C° 0.1 mm 3 mps 550 mmHg 70%
    16:00 +16°C° 0.1 mm 2 mps 550 mmHg 73%
    17:00 +14°C° 0.1 mm 2 mps 549 mmHg 80%
    18:00 +12°C° 0.1 mm 2 mps 549 mmHg 87%
    19:00 +10°C° 0.1 mm 2 mps 548 mmHg 95%
    20:00 +9°C° 0 mm 2 mps 549 mmHg 95%
    21:00 +9°C° 0 mm 2 mps 549 mmHg 95%
    22:00 +9°C° 0 mm 2 mps 549 mmHg 95%
    23:00 +9°C° 0 mm 2 mps 549 mmHg 95%
    Show more